When you browse on this site, cookies collect data to enhance your experience and personalize the content and advertising you see.
Visit our Privacy Policy to learn more. By continuing to use the site, you agree to this use of cookies and data.
  • In Hungary
  • List of Countries
  • For 7 days
  • Water Temperature
  • Satellite Maps
  • Weather Map
  • News
  • Weather Widgets
  • user-avatar
    Login

    Hourly Weather Juticalpa

    Today, 24 April, Wednesday

    Time Temperature Precipitation Wind Pressure Humidity
    00:00 +23°C° 0 mm 1 mps 727 mmHg 89%
    01:00 +21°C° 0 mm 0 mps 727 mmHg 90%
    02:00 +21°C° 0 mm 0 mps 727 mmHg 92%
    03:00 +21°C° 0 mm 0 mps 727 mmHg 94%
    04:00 +21°C° 0 mm 0 mps 727 mmHg 93%
    05:00 +21°C° 0 mm 0 mps 727 mmHg 91%
    06:00 +22°C° 0 mm 0 mps 727 mmHg 90%
    07:00 +24°C° 0 mm 0 mps 728 mmHg 78%
    08:00 +28°C° 0 mm 1 mps 728 mmHg 67%
    09:00 +30°C° 0 mm 1 mps 728 mmHg 55%
    10:00 +32°C° 0 mm 1 mps 728 mmHg 47%
    11:00 +35°C° 0 mm 2 mps 728 mmHg 39%
    12:00 +36°C° 0 mm 2 mps 727 mmHg 31%
    13:00 +37°C° 0 mm 2 mps 727 mmHg 30%
    14:00 +37°C° 0 mm 2 mps 726 mmHg 28%
    15:00 +38°C° 0 mm 2 mps 725 mmHg 27%
    16:00 +36°C° 0 mm 2 mps 725 mmHg 32%
    17:00 +34°C° 0 mm 2 mps 725 mmHg 37%
    18:00 +31°C° 0 mm 2 mps 725 mmHg 43%
    19:00 +30°C° 0 mm 2 mps 726 mmHg 53%
    20:00 +28°C° 0 mm 2 mps 726 mmHg 63%
    21:00 +26°C° 0 mm 2 mps 727 mmHg 73%
    22:00 +26°C° 0 mm 1 mps 727 mmHg 77%
    23:00 +25°C° 0 mm 1 mps 727 mmHg 82%

    Tomorrow, 25 April, Thursday

    Time Temperature Precipitation Wind Pressure Humidity
    00:00 +24°C° 0 mm 1 mps 727 mmHg 86%
    01:00 +24°C° 0 mm 1 mps 726 mmHg 88%
    02:00 +23°C° 0 mm 1 mps 726 mmHg 91%
    03:00 +23°C° 0 mm 1 mps 726 mmHg 93%
    04:00 +21°C° 0 mm 0 mps 726 mmHg 93%
    05:00 +21°C° 0 mm 0 mps 726 mmHg 93%
    06:00 +21°C° 0 mm 0 mps 727 mmHg 93%
    07:00 +25°C° 0 mm 1 mps 727 mmHg 81%
    08:00 +28°C° 0 mm 1 mps 727 mmHg 69%
    09:00 +30°C° 0 mm 1 mps 728 mmHg 57%
    10:00 +32°C° 0 mm 2 mps 727 mmHg 49%
    11:00 +35°C° 0 mm 2 mps 727 mmHg 41%
    12:00 +37°C° 0 mm 2 mps 726 mmHg 33%
    13:00 +38°C° 0 mm 2 mps 726 mmHg 31%
    14:00 +38°C° 0 mm 2 mps 725 mmHg 28%
    15:00 +39°C° 0 mm 2 mps 724 mmHg 26%
    16:00 +37°C° 0 mm 2 mps 724 mmHg 30%
    17:00 +35°C° 0 mm 2 mps 725 mmHg 33%
    18:00 +32°C° 0 mm 2 mps 725 mmHg 37%
    19:00 +30°C° 0 mm 2 mps 725 mmHg 43%
    20:00 +29°C° 0 mm 1 mps 726 mmHg 48%
    21:00 +27°C° 0 mm 1 mps 727 mmHg 53%
    22:00 +26°C° 0 mm 1 mps 727 mmHg 59%
    23:00 +26°C° 0 mm 1 mps 727 mmHg 64%

    Day after tomorrow, 26 April, Friday

    Time Temperature Precipitation Wind Pressure Humidity
    00:00 +25°C° 0 mm 1 mps 727 mmHg 70%
    01:00 +24°C° 0 mm 1 mps 727 mmHg 74%
    02:00 +24°C° 0 mm 1 mps 727 mmHg 78%
    03:00 +23°C° 0 mm 1 mps 726 mmHg 82%
    04:00 +21°C° 0 mm 0 mps 727 mmHg 83%
    05:00 +22°C° 0 mm 0 mps 727 mmHg 83%
    06:00 +22°C° 0 mm 0 mps 727 mmHg 83%
    07:00 +25°C° 0 mm 0 mps 728 mmHg 73%
    08:00 +29°C° 0 mm 1 mps 728 mmHg 62%
    09:00 +32°C° 0 mm 1 mps 728 mmHg 52%
    10:00 +35°C° 0 mm 1 mps 728 mmHg 45%
    11:00 +37°C° 0 mm 1 mps 728 mmHg 38%
    12:00 +38°C° 0 mm 0 mps 727 mmHg 32%
    13:00 +40°C° 0 mm 1 mps 726 mmHg 32%
    14:00 +39°C° 0 mm 1 mps 726 mmHg 32%
    15:00 +37°C° 0 mm 1 mps 725 mmHg 33%
    16:00 +36°C° 0 mm 1 mps 725 mmHg 37%
    17:00 +34°C° 0 mm 1 mps 725 mmHg 40%
    18:00 +33°C° 0 mm 1 mps 726 mmHg 44%
    19:00 +31°C° 0 mm 1 mps 726 mmHg 50%
    20:00 +30°C° 0 mm 1 mps 727 mmHg 57%
    21:00 +29°C° 0 mm 1 mps 728 mmHg 63%
    22:00 +28°C° 0.1 mm 1 mps 728 mmHg 66%
    23:00 +28°C° 0.1 mm 1 mps 728 mmHg 70%

    27 April, Saturday

    Time Temperature Precipitation Wind Pressure Humidity
    00:00 +27°C° 0.1 mm 1 mps 728 mmHg 74%
    01:00 +26°C° 0 mm 1 mps 728 mmHg 78%
    02:00 +25°C° 0 mm 1 mps 727 mmHg 83%
    03:00 +24°C° 0 mm 1 mps 727 mmHg 87%
    04:00 +24°C° 0 mm 1 mps 727 mmHg 87%
    05:00 +22°C° 0 mm 0 mps 727 mmHg 88%
    06:00 +22°C° 0 mm 0 mps 727 mmHg 88%
    07:00 +25°C° 0 mm 0 mps 728 mmHg 75%
    08:00 +30°C° 0 mm 1 mps 728 mmHg 62%
    09:00 +33°C° 0 mm 1 mps 729 mmHg 49%
    10:00 +34°C° 0 mm 1 mps 728 mmHg 43%
    11:00 +36°C° 0 mm 1 mps 728 mmHg 37%
    12:00 +39°C° 0 mm 1 mps 727 mmHg 30%
    13:00 +39°C° 0 mm 1 mps 726 mmHg 29%
    14:00 +39°C° 0 mm 2 mps 725 mmHg 28%
    15:00 +39°C° 0 mm 2 mps 725 mmHg 27%
    16:00 +37°C° 0 mm 2 mps 725 mmHg 31%
    17:00 +35°C° 0 mm 2 mps 725 mmHg 35%
    18:00 +32°C° 0 mm 1 mps 725 mmHg 39%
    19:00 +31°C° 0 mm 1 mps 726 mmHg 45%
    20:00 +29°C° 0 mm 1 mps 727 mmHg 50%
    21:00 +28°C° 0 mm 1 mps 728 mmHg 56%
    22:00 +27°C° 0 mm 1 mps 728 mmHg 63%
    23:00 +26°C° 0 mm 1 mps 727 mmHg 70%

    28 April, Sunday

    Time Temperature Precipitation Wind Pressure Humidity
    00:00 +26°C° 0 mm 1 mps 727 mmHg 77%
    01:00 +25°C° 0 mm 1 mps 727 mmHg 80%
    02:00 +25°C° 0 mm 1 mps 727 mmHg 83%
    03:00 +23°C° 0 mm 0 mps 726 mmHg 86%
    04:00 +23°C° 0 mm 0 mps 727 mmHg 86%
    05:00 +23°C° 0 mm 0 mps 727 mmHg 87%
    06:00 +22°C° 0 mm 0 mps 727 mmHg 88%
    07:00 +27°C° 0 mm 1 mps 728 mmHg 76%
    08:00 +29°C° 0 mm 1 mps 728 mmHg 63%
    09:00 +32°C° 0 mm 1 mps 728 mmHg 51%
    10:00 +34°C° 0 mm 1 mps 728 mmHg 45%
    11:00 +36°C° 0 mm 2 mps 727 mmHg 38%
    12:00 +38°C° 0 mm 2 mps 727 mmHg 32%
    13:00 +38°C° 0 mm 2 mps 726 mmHg 31%
    14:00 +38°C° 0 mm 2 mps 725 mmHg 30%
    15:00 +39°C° 0 mm 2 mps 725 mmHg 28%
    16:00 +37°C° 0 mm 2 mps 725 mmHg 35%
    17:00 +35°C° 0 mm 3 mps 725 mmHg 42%
    18:00 +34°C° 0 mm 3 mps 726 mmHg 48%
    19:00 +31°C° 0 mm 3 mps 726 mmHg 58%
    20:00 +29°C° 0 mm 2 mps 727 mmHg 67%
    21:00 +27°C° 0 mm 2 mps 728 mmHg 77%
    22:00 +27°C° 0 mm 1 mps 727 mmHg 81%
    23:00 +26°C° 0 mm 1 mps 727 mmHg 85%

    29 April, Monday

    Time Temperature Precipitation Wind Pressure Humidity
    00:00 +25°C° 0 mm 1 mps 727 mmHg 89%
    01:00 +25°C° 0.1 mm 1 mps 727 mmHg 89%
    02:00 +23°C° 0.1 mm 0 mps 727 mmHg 90%
    03:00 +23°C° 0.1 mm 0 mps 726 mmHg 90%
    04:00 +23°C° 0 mm 0 mps 727 mmHg 90%
    05:00 +23°C° 0 mm 0 mps 727 mmHg 90%
    06:00 +25°C° 0 mm 1 mps 727 mmHg 90%
    07:00 +27°C° 0 mm 1 mps 728 mmHg 78%
    08:00 +29°C° 0 mm 1 mps 728 mmHg 66%
    09:00 +31°C° 0 mm 2 mps 729 mmHg 55%
    10:00 +34°C° 0 mm 2 mps 728 mmHg 49%
    11:00 +35°C° 0 mm 2 mps 728 mmHg 44%
    12:00 +37°C° 0 mm 3 mps 727 mmHg 38%
    13:00 +36°C° 0 mm 3 mps 727 mmHg 39%
    14:00 +36°C° 0 mm 3 mps 726 mmHg 40%
    15:00 +36°C° 0 mm 3 mps 726 mmHg 41%
    16:00 +34°C° 0.2 mm 3 mps 726 mmHg 47%
    17:00 +31°C° 0.2 mm 3 mps 726 mmHg 54%
    18:00 +30°C° 0.2 mm 3 mps 727 mmHg 60%
    19:00 +28°C° 0 mm 2 mps 727 mmHg 67%
    20:00 +27°C° 0 mm 2 mps 728 mmHg 74%
    21:00 +26°C° 0 mm 1 mps 728 mmHg 80%
    22:00 +25°C° 0 mm 1 mps 728 mmHg 84%
    23:00 +25°C° 0 mm 1 mps 728 mmHg 88%
    Show more